Location: Unspecified
(0.0000°N, 0.0000°E)
Time: 23:54:32
(UTC+00:00)

Courier 1B Rocket - Pass Details

Date: 10 October 2020
Orbit: 920 x 1202 km, 28.2° (Epoch: 28 October)

Event Time Altitude Azimuth Distance (km) Brightness Sun altitude
Rises 12:57:27 0° 249° (WSW) 3,584 8.2 71.1°
Reaches altitude 10° 13:02:44 10° 213° (SSW) 2,694 7.7 69.8°
Maximum altitude 13:04:10 11° 200° (SSW) 2,659 7.6 69.5°
Drops below altitude 10° 13:05:38 10° 187° (S) 2,731 7.6 69.2°
Sets 13:11:12 0° 150° (SSE) 3,765 8.0 67.9°
